This is the latest recevied weather packets stored in our database for station/object W2JGA. If no packets are shown the sender has not sent any weather packets the latest 10 day(s).
| Time | Temp. | Humidity | Pressure | Rain* | Wind** | Luminosity | Snow |
|---|---|---|---|---|---|---|---|
| 1777819455 | 24.44° C | 41% | 1016.8 hPa | 0 mm | - | 101 W/m² | - |
| 1777819154 | 24.44° C | 41% | 1016.8 hPa | 0 mm | - | 107 W/m² | - |
| 1777818850 | 24.44° C | 41% | 1016.5 hPa | 0 mm | - | 103 W/m² | - |
| 1777818546 | 23.89° C | 41% | 1016.5 hPa | 0 mm | - | 110 W/m² | - |
| 1777818244 | 23.89° C | 42% | 1016.8 hPa | 0 mm | - | 127 W/m² | - |
| 1777817939 | 23.89° C | 42% | 1016.5 hPa | 0 mm | - | 111 W/m² | - |
| 1777817636 | 23.89° C | 42% | 1016.5 hPa | 0 mm | - | 114 W/m² | - |
| 1777817333 | 23.89° C | 42% | 1016.5 hPa | 0 mm | - | 109 W/m² | - |
| 1777817030 | 23.33° C | 42% | 1016.5 hPa | 0 mm | - | 93 W/m² | - |
| 1777816726 | 23.33° C | 43% | 1016.5 hPa | 0 mm | - | 78 W/m² | - |
| 1777816424 | 23.33° C | 43% | 1016.5 hPa | 0 mm | - | 76 W/m² | - |
| 1777816121 | 23.33° C | 43% | 1016.5 hPa | 0 mm | - | 64 W/m² | - |
| 1777815819 | 23.33° C | 42% | 1016.5 hPa | 0 mm | - | 53 W/m² | - |
| 1777815516 | 23.33° C | 43% | 1016.5 hPa | 0 mm | - | 46 W/m² | - |
| 1777815213 | 23.33° C | 43% | 1016.5 hPa | 0 mm | - | 39 W/m² | - |
| 1777814909 | 23.33° C | 43% | 1016.1 hPa | 0 mm | - | 32 W/m² | - |
| 1777814606 | 22.78° C | 43% | 1016.5 hPa | 0 mm | - | 25 W/m² | - |
| 1777814304 | 22.78° C | 43% | 1016.1 hPa | 0 mm | - | 23 W/m² | - |
| 1777814000 | 22.78° C | 43% | 1016.1 hPa | 0 mm | - | 24 W/m² | - |
| 1777813698 | 22.78° C | 43% | 1016.1 hPa | 0 mm | - | 24 W/m² | - |
| 1777813396 | 22.78° C | 43% | 1015.8 hPa | 0 mm | - | 16 W/m² | - |
| 1777813092 | 22.78° C | 43% | 1015.8 hPa | 0 mm | - | 11 W/m² | - |
| 1777812790 | 22.78° C | 43% | 1015.8 hPa | 0 mm | - | 6 W/m² | - |
| 1777812486 | 22.78° C | 43% | 1015.8 hPa | 0 mm | - | 4 W/m² | - |
| 1777812184 | 22.78° C | 43% | 1015.8 hPa | 0 mm | - | 2 W/m² | - |
* Rain latest hour (hover to see other rain measurements)
** Current wind speed in m/s (hover to see current wind gust speed)